| time (UTC) | temp C | wind direction | speed KPH | gust KPH | rain 1hr cm | rain 24hr cm | rain mn cm | humidity % | barometer mb |
| 20260906132802 | 21 | 48 | 0.0 | 0.0 | 0.00 | 0.00 | 0.00 | 73 | 1020.2 |
| 20260906125800 | 20 | 110 | 0.0 | 0.0 | 0.00 | 0.00 | 0.00 | 75 | 1019.8 |
| 20260906122759 | 18 | 143 | 0.0 | 0.0 | 0.00 | 0.00 | 0.00 | 81 | 1019.8 |
| 20260906115758 | 15 | 96 | 0.0 | 0.0 | 0.00 | 0.00 | 0.00 | 96 | 1019.5 |
| 20260906112754 | 13 | 96 | 0.0 | 0.0 | 0.00 | 0.00 | 0.00 | 97 | 1019.0 |
| 20260906105751 | 13 | 96 | 0.0 | 0.0 | 0.00 | 0.00 | 0.00 | 97 | 1018.7 |
| 20260906102747 | 13 | 96 | 0.0 | 0.0 | 0.00 | 0.00 | 0.00 | 97 | 1018.7 |
| 20260906095744 | 13 | 96 | 0.0 | 0.0 | 0.00 | 0.00 | 0.00 | 97 | 1018.4 |
| 20260906092743 | 14 | 96 | 0.0 | 0.0 | 0.00 | 0.00 | 0.00 | 96 | 1018.4 |
| 20260906085742 | 14 | 96 | 1.6 | 1.6 | 0.00 | 0.00 | 0.00 | 96 | 1018.0 |
| 20260906082739 | 14 | 96 | 0.0 | 0.0 | 0.00 | 0.00 | 0.00 | 96 | 1018.0 |
| 20260906075735 | 14 | 96 | 0.0 | 0.0 | 0.00 | 0.00 | 0.00 | 96 | 1017.7 |
| 20260906072732 | 15 | 96 | 0.0 | 0.0 | 0.00 | 0.00 | 0.00 | 96 | 1017.7 |
| 20260906065732 | 15 | 96 | 0.0 | 0.0 | 0.00 | 0.00 | 0.00 | 95 | 1017.7 |
| 20260906062727 | 15 | 96 | 0.0 | 0.0 | 0.00 | 0.00 | 0.00 | 96 | 1017.7 |
| 20260906055724 | 15 | 96 | 0.0 | 0.0 | 0.00 | 0.00 | 0.00 | 96 | 1017.7 |
| 20260906052720 | 16 | 96 | 0.0 | 0.0 | 0.00 | 0.00 | 0.00 | 95 | 1017.7 |
| 20260906045719 | 16 | 96 | 0.0 | 0.0 | 0.00 | 0.00 | 0.00 | 94 | 1018.0 |
| 20260906042714 | 16 | 96 | 0.0 | 0.0 | 0.00 | 0.00 | 0.00 | 94 | 1017.7 |
| 20260906035714 | 16 | 96 | 0.0 | 0.0 | 0.00 | 0.00 | 0.00 | 94 | 1018.0 |
| 20260906032709 | 17 | 96 | 0.0 | 0.0 | 0.00 | 0.00 | 0.00 | 92 | 1017.7 |
| 20260906025705 | 18 | 96 | 0.0 | 0.0 | 0.00 | 0.00 | 0.00 | 90 | 1017.4 |
| 20260906022701 | 18 | 96 | 0.0 | 0.0 | 0.00 | 0.00 | 0.00 | 90 | 1017.4 |
| 20260906015659 | 19 | 96 | 0.0 | 0.0 | 0.00 | 0.00 | 0.00 | 90 | 1017.0 |
| 20260906012657 | 18 | 96 | 0.0 | 0.0 | 0.00 | 0.00 | 0.00 | 92 | 1016.7 |
| 20260906005656 | 19 | 96 | 0.0 | 0.0 | 0.00 | 0.00 | 0.00 | 88 | 1016.7 |
| 20260906002653 | 19 | 96 | 0.0 | 0.0 | 0.00 | 0.00 | 0.00 | 86 | 1016.3 |
| 20260905235651 | 20 | 96 | 0.0 | 0.0 | 0.00 | 0.00 | 0.00 | 84 | 1016.0 |
| 20260905232649 | 22 | 96 | 0.0 | 0.0 | 0.00 | 0.00 | 0.00 | 74 | 1015.6 |
| 20260905225647 | 24 | 94 | 3.2 | 3.2 | 0.00 | 0.00 | 0.00 | 64 | 1015.6 |
| 20260905222642 | 25 | 76 | 1.6 | 1.6 | 0.00 | 0.00 | 0.00 | 66 | 1015.2 |
| 20260905215637 | 26 | 52 | 3.2 | 3.2 | 0.00 | 0.00 | 0.00 | 60 | 1014.9 |
| 20260905212632 | 26 | 42 | 3.2 | 3.2 | 0.00 | 0.00 | 0.00 | 59 | 1014.9 |
| 20260905205630 | 25 | 51 | 0.0 | 0.0 | 0.00 | 0.00 | 0.00 | 64 | 1015.2 |
| 20260905202627 | 26 | 42 | 0.0 | 0.0 | 0.00 | 0.00 | 0.00 | 58 | 1015.2 |
| 20260905195624 | 26 | 54 | 3.2 | 3.2 | 0.00 | 0.00 | 0.00 | 61 | 1014.9 |
| 20260905192622 | 27 | 6 | 3.2 | 3.2 | 0.00 | 0.00 | 0.00 | 56 | 1015.6 |
| 20260905185619 | 26 | 53 | 1.6 | 1.6 | 0.00 | 0.00 | 0.00 | 62 | 1015.6 |
| 20260905182619 | 25 | 78 | 0.0 | 0.0 | 0.00 | 0.00 | 0.00 | 66 | 1016.0 |
| 20260905175614 | 25 | 175 | 3.2 | 3.2 | 0.00 | 0.00 | 0.00 | 65 | 1016.3 |
| 20260905172614 | 25 | 342 | 3.2 | 3.2 | 0.00 | 0.00 | 0.00 | 66 | 1016.3 |
| 20260905165611 | 25 | 162 | 3.2 | 3.2 | 0.00 | 0.00 | 0.00 | 69 | 1017.0 |
| 20260905162607 | 25 | 286 | 0.0 | 0.0 | 0.00 | 0.00 | 0.00 | 71 | 1017.4 |
| 20260905155603 | 24 | 241 | 0.0 | 0.0 | 0.00 | 0.00 | 0.00 | 73 | 1017.7 |
| 20260905152600 | 23 | 66 | 3.2 | 3.2 | 0.00 | 0.00 | 0.00 | 78 | 1017.4 |
| 20260905145556 | 23 | 138 | 0.0 | 0.0 | 0.00 | 0.00 | 0.00 | 80 | 1017.4 |
| 20260905142555 | 23 | 138 | 0.0 | 0.0 | 0.00 | 0.00 | 0.00 | 82 | 1017.4 |
| 20260905135553 | 23 | 139 | 3.2 | 3.2 | 0.00 | 0.00 | 0.00 | 81 | 1016.7 |